Dewpoint
24 22 20 20 22 20 24 20 20 28 19 19 17 19 25 29 33 38 44 48 52 49 49 55 57 57 59 61 61 62 63 63 63 63 63 63 64 64 65 66 66 66 67 69 68 68 69 69 70 70 70 70 71 71 71 72 72 72 72 72 72 74 71 71 72 73 71 69 69 69 68 68 69 69 70 71 71 73 71 70 69 68 69 68 67 67
26 22 22 20 20 23 21 21 21 20 20 21 18 15 18 32 33 40 46 47 46 50 51 57 57 57 58 60 61 62 63 62 63 63 62 63 63 64 65 65 66 67 68 69 68 69 69 69 69 69 69 73 69 70 71 71 72 72 72 72 73 72 72 72 72 72 72 70 69 68 68 68 68 68 68 68 69 69 70 70 69 69 69 69 68 69
23 20 17 20 21 24 31 31 24 23 21 21 19 18 25 32 37 41 41 44 48 52 50 57 56 54 55 58 61 62 62 62 63 62 62 63 63 63 64 65 66 67 66 68 69 69 69 69 69 69 69 69 69 69 71 71 71 71 72 72 72 72 72 72 72 72 72 72 71 69 69 69 68 69 69 69 69 70 70 69 69 69 69 70 71 71
27 18 19 20 20 18 15 18 19 23 22 23 25 26 28 35 39 40 40 49 52 52 53 55 55 53 54 58 58 57 61 62 62 62 62 63 63 64 65 65 66 65 65 66 66 68 68 69 69 69 69 69 69 71 69 70 70 70 72 71 72 72 71 71 71 73 73 73 71 71 70 70 70 69 72 72 72 73 72 72 71 71 71 72 73 72
18 18 19 19 19 20 16 16 20 20 20 16 29 27 29 33 36 41 40 48 53 54 55 55 52 51 51 58 59 59 62 62 62 62 62 62 63 64 64 65 65 66 65 64 65 66 68 69 69 69 70 70 69 69 69 69 70 70 71 71 72 71 71 71 71 70 70 71 71 71 71 71 70 71 70 71 72 73 74 73 73 74 73 72 71 71
17 19 26 20 18 20 14 13 14 17 16 14 15 28 33 34 39 42 44 46 47 50 52 52 43 45 49 51 56 57 60 61 61 61 61 61 62 63 65 65 64 64 63 65 66 67 68 68 68 68 69 69 69 69 70 70 71 71 71 71 70 70 71 71 71 70 71 71 70 70 70 70 71 71 71 70 70 70 70 69 70 72 73 72 70 70
18 22 25 18 17 23 15 12 17 15 15 13 18 22 27 35 41 43 42 42 41 44 51 48 41 38 43 51 54 57 59 60 60 60 61 61 62 63 64 64 63 62 61 62 63 63 64 64 65 67 68 69 68 69 69 70 70 70 71 70 70 70 70 70 71 70 72 70 70 71 71 71 71 71 71 71 71 71 70 69 69 70 71 71 72 71
29 20 19 19 18 17 15 13 15 15 14 14 17 19 30 39 40 41 40 38 42 44 44 43 45 42 42 49 52 58 59 59 59 60 61 61 62 63 64 63 62 61 61 63 63 63 63 63 66 67 68 67 68 68 66 68 70 71 70 70 69 69 71 70 70 70 71 71 70 71 71 71 71 71 71 72 72 71 70 69 70 70 70 70 71 72
20 27 21 20 19 17 17 18 20 22 15 16 18 28 35 39 40 40 38 33 34 44 44 44 43 39 39 44 52 59 58 59 59 60 61 61 61 63 63 63 62 61 61 62 63 62 61 61 63 65 64 64 63 64 64 66 68 69 68 69 68 66 67 67 69 71 69 71 71 70 70 69 69 70 71 72 72 72 71 70 70 68 68 69 70 71
22 20 18 17 16 16 29 19 21 23 14 19 24 31 30 29 32 35 34 37 40 39 38 44 42 37 35 39 54 56 57 57 58 60 60 61 61 62 63 63 62 62 62 62 63 62 60 60 61 62 62 62 63 64 67 64 64 65 65 66 64 63 64 66 67 68 68 68 70 68 68 68 68 69 69 71 71 71 70 69 68 67 68 69 70 70
20 50 34 18 15 22 19 18 21 20 21 21 22 23 24 29 33 38 33 34 36 32 34 41 41 38 33 40 53 55 57 56 57 59 60 61 61 62 63 63 62 62 62 62 62 62 60 61 61 62 62 62 64 63 63 63 63 64 63 62 62 62 64 66 66 67 66 67 68 67 67 67 67 68 69 69 69 69 69 68 68 69 68 68 68 69
20 20 29 21 40 23 20 23 22 24 28 20 23 22 20 22 29 27 30 30 27 25 29 31 40 38 33 35 45 56 54 57 58 58 59 60 61 61 62 63 62 62 62 62 62 61 60 60 61 62 61 62 62 62 62 63 63 64 63 62 60 61 62 64 66 67 66 65 65 65 66 66 66 67 68 68 68 68 67 67 68 69 68 68 68 68
17 19 25 25 56 20 20 16 18 21 20 22 22 20 16 18 23 16 27 20 18 19 25 32 36 38 37 35 42 49 54 56 58 58 59 60 61 61 62 62 62 62 62 61 61 60 60 60 60 61 60 60 61 61 62 62 63 63 62 61 60 60 61 63 66 66 66 64 64 65 65 66 67 67 67 67 67 67 67 67 67 67 67 67 67 68
20 22 23 26 26 41 17 15 18 16 22 16 18 27 20 17 18 13 23 24 21 25 25 31 37 34 39 39 42 45 49 53 58 59 60 60 61 61 62 62 62 61 61 61 60 59 60 60 60 60 60 60 60 61 62 65 64 63 62 62 61 60 61 62 63 65 66 65 65 65 65 66 66 66 67 66 66 66 66 66 66 66 66 67 67 66
18 17 20 22 19 23 24 17 17 19 20 28 20 17 21 20 18 13 20 15 16 23 26 29 30 28 32 36 49 50 51 52 57 60 61 61 61 61 62 62 61 60 60 60 59 59 59 60 59 59 60 59 60 61 62 62 62 61 61 61 60 60 60 61 62 65 66 65 65 65 66 66 66 67 67 66 66 66 65 65 65 66 67 67 67 67
16 20 22 28 25 24 26 29 24 21 21 25 22 22 20 22 30 16 25 22 25 22 22 32 31 36 40 45 53 52 52 52 57 60 61 61 60 60 60 60 60 60 60 60 59 59 59 59 58 59 60 60 60 61 61 62 62 61 60 61 60 60 60 61 64 64 65 65 65 65 65 65 66 67 66 66 66 65 65 65 65 65 65 66 66 66
21 19 19 30 31 22 22 35 29 25 22 25 20 22 21 28 31 34 40 32 29 25 23 32 41 43 45 42 48 51 53 54 57 58 60 60 59 58 59 59 59 60 59 59 59 59 59 57 58 60 60 59 61 60 61 61 61 60 61 62 60 60 60 60 64 63 64 64 64 64 64 65 65 65 65 65 64 65 65 65 65 65 65 66 66 66
16 19 25 29 28 23 29 26 27 26 27 21 21 21 29 32 27 26 18 25 24 16 21 37 38 41 36 32 47 49 52 53 55 56 58 59 58 57 58 59 59 59 59 59 59 59 58 57 58 59 59 59 60 60 61 62 61 60 61 60 59 61 60 61 61 63 64 64 64 63 64 64 64 64 64 64 64 65 65 65 65 65 65 65 65 66
23 19 20 25 27 28 30 26 24 27 26 20 20 25 18 22 19 25 25 16 15 15 21 22 34 42 39 38 44 46 50 52 53 55 56 56 56 57 58 58 58 58 58 58 58 57 57 57 58 59 58 59 60 62 61 61 61 60 60 61 60 60 60 61 62 63 64 64 64 64 65 64 64 63 63 64 64 64 64 64 64 64 65 65 66 66
28 17 24 25 29 31 28 26 24 24 23 23 21 20 30 26 28 23 23 27 22 17 19 18 35 31 42 43 45 44 49 52 52 53 55 56 56 57 57 57 57 57 57 57 57 57 57 57 58 57 58 58 59 61 61 61 61 60 60 62 63 63 61 61 62 63 62 62 63 63 63 62 63 64 63 63 63 63 64 64 64 64 64 64 65 65
24 28 18 22 31 23 23 28 23 23 21 21 21 23 25 31 28 24 28 24 23 22 20 23 20 26 36 45 47 46 48 52 52 53 54 55 56 56 57 57 57 57 57 57 57 57 57 57 57 58 58 59 60 62 62 60 60 60 60 60 62 61 60 60 61 61 62 63 62 63 61 61 62 62 62 62 63 63 63 63 64 64 64 65 64 65
27 25 21 29 27 23 22 28 30 25 22 20 19 19 23 23 24 21 22 27 27 23 19 22 20 25 32 47 49 47 49 51 53 53 54 54 55 56 56 56 56 56 57 57 57 56 56 57 58 57 59 60 60 60 61 61 61 60 60 59 59 59 59 60 61 61 62 62 63 62 61 61 61 62 62 62 62 62 63 63 63 63 64 64 64 65
24 34 26 24 25 22 25 26 34 26 25 24 21 21 26 26 25 25 17 22 24 27 32 29 22 24 34 46 50 50 51 51 52 53 53 54 55 55 55 55 56 57 57 56 56 55 55 57 57 57 58 59 60 60 61 62 61 60 60 60 60 59 59 60 61 61 62 62 62 62 61 61 61 61 61 61 62 62 62 62 62 63 63 63 64 65
60 30 29 30 33 35 27 30 35 35 28 25 27 28 26 24 26 23 27 30 23 25 23 22 24 24 33 45 52 53 51 52 52 52 53 54 54 55 55 55 55 56 56 56 56 55 56 57 57 58 59 60 60 60 61 61 61 61 60 60 60 59 59 60 61 62 62 62 62 62 61 61 61 61 61 61 62 62 62 62 62 63 63 64 64 64
25 28 28 26 25 28 29 32 28 35 34 30 29 33 30 29 27 30 31 31 26 25 26 21 19 22 34 48 51 51 51 51 51 51 53 53 54 55 54 54 55 56 55 55 55 55 56 56 57 58 59 60 60 61 61 61 61 61 61 60 60 60 59 60 61 62 62 62 62 62 61 61 61 61 61 61 61 62 62 62 62 63 63 63 63 64
30 36 28 25 24 21 20 21 23 26 27 32 35 32 33 27 25 27 25 25 20 29 28 24 23 28 33 41 47 49 50 50 51 51 51 53 54 54 54 54 55 55 55 55 54 55 55 57 58 58 59 60 60 61 61 61 61 61 61 60 60 60 60 59 60 61 62 61 61 60 60 60 61 61 61 61 62 63 62 63 63 63 63 63 63 64
38 41 34 30 26 24 25 29 34 43 33 30 31 32 30 31 32 31 30 26 22 28 26 27 30 27 28 32 42 47 49 49 50 49 50 51 53 54 54 54 54 54 54 54 54 54 56 57 57 58 59 59 59 60 61 61 61 61 61 60 60 60 60 60 60 60 60 60 59 59 59 60 60 61 60 61 62 63 63 63 63 62 63 63 64 64
38 29 35 33 32 30 33 35 33 43 30 32 30 30 30 29 29 26 27 28 31 27 24 33 33 30 28 31 40 45 48 49 50 50 49 50 53 54 54 55 58 54 54 54 54 55 56 56 57 57 58 58 59 60 60 60 61 61 60 60 60 60 60 61 61 60 60 59 59 58 59 59 60 60 61 62 63 63 63 63 62 62 63 63 63 64
35 28 32 31 32 37 31 32 39 40 34 33 32 29 28 30 31 29 33 35 32 28 27 33 34 33 32 31 32 39 46 48 49 50 49 51 53 54 54 54 54 53 53 53 54 55 56 56 57 57 57 58 59 59 60 60 60 60 60 60 60 60 60 61 60 60 59 59 58 58 59 59 60 61 62 62 63 63 62 62 62 62 62 63 63 64
31 32 37 34 32 31 37 36 38 30 30 30 31 30 28 28 28 27 31 35 31 33 33 35 37 34 33 33 33 37 46 48 49 51 51 51 52 54 54 54 54 53 53 53 54 55 56 56 57 57 58 58 59 59 60 60 60 60 60 60 60 60 60 60 60 60 59 58 58 59 59 60 60 61 61 61 61 62 62 61 62 62 62 62 63 63
32 31 42 34 31 31 35 38 34 32 33 30 30 31 30 28 28 29 31 34 38 35 35 36 37 36 37 38 36 42 49 49 49 48 48 50 53 54 53 53 53 53 53 54 55 55 56 56 57 57 58 58 59 59 60 60 60 60 60 60 59 59 59 59 59 59 59 58 59 59 59 59 60 60 61 61 61 61 61 61 61 61 62 62 63 63
37 31 38 35 27 28 31 32 34 34 33 32 34 35 33 34 33 33 32 38 36 34 37 36 33 35 36 42 49 48 48 47 46 47 48 50 53 54 53 53 53 53 53 54 55 56 56 56 57 57 58 58 59 59 59 59 60 59 59 59 58 58 59 59 59 58 58 59 59 59 59 60 60 60 60 60 60 60 60 61 61 61 62 62 62 63
38 35 31 29 25 29 31 36 33 33 31 30 31 31 31 35 33 35 37 42 40 35 33 31 31 35 37 48 47 46 47 47 47 47 48 51 52 53 53 53 53 53 53 54 55 56 56 56 56 57 58 58 59 59 60 60 59 58 59 58 58 58 58 58 58 58 58 58 58 59 59 59 59 59 59 60 60 60 60 60 61 61 61 61 62 62
38 34 33 35 27 30 31 38 36 30 26 28 34 35 35 31 32 32 32 34 39 37 35 34 33 39 44 47 46 45 46 46 46 48 49 50 51 53 52 53 53 53 53 54 55 55 56 56 57 57 58 58 59 59 60 61 59 59 59 59 59 58 58 58 58 58 58 58 58 58 58 59 59 59 59 59 59 60 60 60 60 61 61 62 62 61
39 37 35 37 30 29 34 34 30 28 28 37 41 41 39 36 35 33 35 36 37 40 42 39 39 40 43 47 47 47 47 48 49 49 50 51 52 52 52 52 52 53 53 54 55 55 56 56 57 57 58 58 59 60 60 60 60 60 59 58 58 58 58 58 58 58 58 58 58 58 58 58 58 58 58 59 59 59 59 60 60 60 61 62 62 61
36 34 38 35 36 34 32 31 25 27 34 39 38 41 44 40 39 37 36 38 40 40 42 42 41 43 47 48 48 48 48 49 50 51 51 52 51 51 51 51 51 53 53 54 54 55 55 56 57 57 58 59 60 60 59 59 59 59 58 58 58 58 58 58 58 58 58 57 58 58 58 58 58 58 58 58 59 59 59 59 60 60 60 62 62 62
35 39 36 31 35 30 33 30 29 35 34 36 35 35 39 33 34 33 29 33 39 43 44 44 45 46 48 48 49 49 49 49 48 48 51 51 52 51 50 50 50 52 54 55 55 55 56 56 57 57 59 59 59 59 59 59 59 59 59 58 58 58 58 58 58 58 58 59 58 59 58 58 58 58 58 58 59 58 59 59 59 60 62 62 62 61
39 34 36 32 30 35 30 28 29 28 28 33 38 39 40 38 36 39 34 34 42 44 46 45 46 47 48 49 49 48 48 46 44 46 49 50 51 51 52 52 52 52 54 54 55 56 56 57 57 58 59 58 59 59 59 60 59 59 59 58 58 58 58 57 57 58 58 58 58 58 58 58 58 58 58 58 58 58 58 59 60 60 62 62 61 61
34 38 36 32 31 31 30 26 26 26 29 34 34 34 38 40 38 39 34 31 38 42 45 46 46 48 47 47 47 47 45 43 43 45 48 51 51 50 50 50 50 52 54 54 54 55 56 56 57 58 60 58 58 58 60 60 60 59 59 59 58 58 57 57 57 57 57 57 58 58 58 58 58 58 58 58 58 58 58 59 60 62 62 61 61 61
35 38 33 31 31 33 30 26 26 30 29 35 36 38 37 40 41 34 25 28 37 40 46 47 46 48 48 48 47 46 43 42 43 45 47 49 51 51 50 50 51 53 54 54 55 56 56 57 58 59 58 58 58 58 59 60 59 60 59 59 58 58 58 59 59 60 59 59 59 59 59 58 60 60 59 58 58 58 59 61 62 61 60 60 59 60
31 32 32 30 29 36 34 29 29 30 38 42 41 37 42 41 36 29 26 29 40 43 46 48 47 48 48 48 47 45 45 46 47 49 49 51 52 53 53 52 51 53 53 54 54 60 56 57 57 57 57 58 59 59 59 60 60 60 61 60 59 59 59 59 60 59 59 59 59 59 59 59 59 58 58 58 58 59 61 61 60 60 59 58 59 59
30 37 38 33 29 29 32 28 28 30 35 33 36 40 40 32 28 27 33 38 41 44 47 48 47 48 48 48 46 46 47 48 55 53 51 52 51 52 52 51 52 53 54 57 59 60 55 55 56 57 57 58 59 59 60 60 60 60 59 60 60 60 59 59 59 59 59 58 59 59 59 59 59 59 59 60 61 60 59 59 59 59 58 58 58 58
28 31 30 29 32 31 31 29 27 25 34 36 37 38 39 32 31 35 41 45 47 47 47 48 47 47 48 48 48 49 48 49 51 52 52 52 53 53 53 52 52 52 52 53 57 61 56 55 56 56 56 57 58 59 60 60 60 60 60 59 59 59 59 58 58 58 58 58 58 59 59 59 59 60 59 59 60 60 59 58 57 57 57 56 56 56
37 26 29 32 35 27 29 27 27 33 35 37 39 34 38 36 39 42 44 45 49 48 47 47 47 48 48 47 46 49 50 49 50 50 51 52 53 54 55 54 53 53 52 52 52 56 61 56 56 56 57 56 57 58 60 60 60 60 60 58 59 59 59 58 58 58 58 59 59 59 59 59 60 59 58 58 59 59 59 57 57 57 55 56 56 55
36 35 35 28 36 31 31 33 35 38 39 40 42 42 42 43 47 45 46 45 46 47 48 47 47 49 49 47 48 49 48 49 49 49 50 51 51 51 52 53 53 52 51 52 52 58 61 56 55 56 56 56 57 58 59 59 58 60 60 59 60 59 59 59 58 58 58 57 57 58 58 58 57 57 57 57 58 57 57 57 57 57 56 56 54 54
36 39 41 37 35 39 41 38 43 43 43 42 42 47 46 47 48 47 45 45 46 47 48 47 47 49 49 49 47 48 48 49 49 50 50 51 51 51 54 53 52 53 52 53 55 60 60 57 56 55 56 56 57 57 60 59 58 58 59 58 59 60 58 58 58 58 58 57 57 57 57 55 54 55 56 56 57 56 56 56 57 56 56 55 54 54
36 40 37 34 40 33 32 39 41 41 43 43 43 45 48 50 51 49 46 46 47 48 48 50 49 49 48 48 47 47 48 49 49 50 52 53 52 51 50 51 51 52 52 53 54 60 58 55 55 55 56 56 56 57 58 59 59 58 59 59 59 58 58 59 59 59 59 58 57 57 55 53 53 54 55 54 55 55 56 57 56 55 56 56 54 54
37 40 35 35 37 33 35 38 38 40 43 43 44 45 45 47 49 50 51 50 49 50 50 49 48 48 46 45 46 45 46 49 49 49 49 51 52 51 51 51 51 51 51 53 56 60 56 56 55 56 56 56 55 55 57 58 58 59 59 59 59 58 57 59 59 58 57 57 57 57 55 54 59 60 56 54 54 55 54 54 56 55 55 55 55 54
40 43 33 35 33 35 37 37 39 40 41 42 45 46 45 46 47 48 47 47 46 46 47 49 49 44 43 43 48 49 49 51 49 50 49 50 51 51 51 51 51 51 52 55 58 58 56 55 55 55 56 56 56 56 56 57 57 58 59 59 59 57 57 58 61 62 59 57 53 53 59 57 57 58 55 54 54 55 55 54 55 56 55 54 55 54
34 33 35 33 32 31 33 38 40 35 36 40 42 43 44 45 45 45 46 45 45 45 46 45 48 50 47 48 49 47 47 49 51 51 51 52 52 52 52 52 53 53 53 55 58 56 56 58 55 55 55 56 57 55 56 56 57 57 57 58 57 57 56 58 59 58 57 56 54 52 53 54 55 53 55 53 53 54 54 60 52 54 55 55 52 47
34 35 35 33 32 30 33 35 42 42 41 41 42 44 46 46 44 43 43 44 46 46 46 47 47 48 49 51 52 48 49 51 51 50 50 49 51 52 53 53 53 53 53 55 55 54 54 55 59 57 57 56 56 56 56 56 56 56 57 57 57 56 56 55 57 57 55 56 54 55 56 55 54 53 54 53 53 54 54 55 56 48 46 50 50 45